Tekamah, NE

2:13 AM CDT on September 22, 2017 (GMT -0500)
Tekamah

Weather History for KTQE - July, 2013

Change the Weather History Date:

Saturday, July 13, 2013

  Actual Average Record
Temperature  
Mean Temperature 82 °F -  
Max Temperature 91 °F 89 °F 107 °F (1954)
Min Temperature 72 °F 66 °F 48 °F (1950)
Cooling Degree Days 16    
Growing Degree Days 32 (Base 50)    
Moisture  
Dew Point 67 °F    
Average Humidity 63    
Maximum Humidity 71    
Minimum Humidity 52    
Precipitation  
Precipitation 0.00 in - - ()
Sea Level Pressure  
Sea Level Pressure 29.90 in    
Wind  
Wind Speed 11 mph (SE)    
Max Wind Speed 17 mph    
Max Gust Speed 23 mph    
Visibility 7 miles    
Events      
Averages and records for this station are not official NWS values.
T = Trace of Precipitation, MM = Missing Value Source: NWS Daily Summary

Daily Weather History Graph

Daily Weather History Graph

Search for Another Location

Airport or City:

Trip Planner

Search our weather history database for the weather conditions in past years. The results will help you decide how hot, cold, wet, or windy it might be!

Date:

Astronomy

Jul. 13, 2013 Rise Set
Actual Time 6:01 AM CDT 8:58 PM CDT
Civil Twilight 5:28 AM CDT 9:32 PM CDT
Nautical Twilight 4:46 AM CDT 10:14 PM CDT
Astronomical Twilight 3:56 AM CDT 11:03 PM CDT
Moon 11:24 AM CDT (7/13) 11:34 PM CDT (7/13)
Length of Visible Light 16h 03m
Length of Day
14h 57m
Waxing Crescent, 26% of the Moon is Illuminated
Jul 13
Waxing Crescent
Jul 15
First Quarter
Jul 22
Full
Jul 29
Last Quarter
Aug 6
New

Hourly Weather History & Observations

Time (CDT) Temp. Heat Index Dew Point Humidity Pressure Visibility Wind Dir Wind Speed Gust Speed Precip Events Conditions
12:54 AM 77.0 °F - 63.0 °F 62% 29.91 in 8.0 mi SE 8.1 mph - N/A   Clear
1:54 AM 75.9 °F - 62.1 °F 62% 29.91 in 8.0 mi SE 8.1 mph - N/A   Clear
2:54 AM 75.0 °F - 62.1 °F 64% 29.91 in 8.0 mi SE 9.2 mph - N/A   Clear
3:54 AM 73.9 °F - 62.1 °F 66% 29.90 in 8.0 mi SSE 8.1 mph - N/A   Clear
4:54 AM 73.0 °F - 62.1 °F 68% 29.90 in 8.0 mi SE 11.5 mph - N/A   Clear
5:54 AM 72.0 °F - 62.1 °F 71% 29.91 in 8.0 mi SSE 8.1 mph - N/A   Clear
6:54 AM 73.0 °F - 62.1 °F 68% 29.91 in 6.0 mi SE 10.4 mph - N/A   Haze
7:54 AM 73.9 °F - 63.0 °F 68% 29.91 in 6.0 mi SSE 10.4 mph - N/A   Haze
8:54 AM 78.1 °F - 64.9 °F 64% 29.92 in 7.0 mi SSE 10.4 mph - N/A   Clear
9:54 AM 81.0 °F 83.0 °F 66.0 °F 60% 29.92 in 7.0 mi SSE 13.8 mph 19.6 mph N/A   Clear
10:54 AM 81.0 °F 83.3 °F 66.9 °F 62% 29.91 in 7.0 mi South 11.5 mph - N/A   Clear
11:54 AM 84.9 °F 89.4 °F 70.0 °F 61% 29.91 in 7.0 mi South 16.1 mph 21.9 mph N/A   Scattered Clouds
12:54 PM 87.1 °F 92.8 °F 71.1 °F 59% 29.90 in 7.0 mi SSE 15.0 mph - N/A   Clear
1:54 PM 89.1 °F 94.1 °F 70.0 °F 53% 29.89 in 7.0 mi SSE 15.0 mph 23.0 mph N/A   Clear
2:54 PM 90.0 °F 96.4 °F 71.1 °F 54% 29.88 in 8.0 mi SSE 15.0 mph 20.7 mph N/A   Clear
3:54 PM 91.0 °F 97.6 °F 71.1 °F 52% 29.88 in 8.0 mi SE 15.0 mph - N/A   Clear
4:54 PM 90.0 °F 96.9 °F 72.0 °F 55% 29.89 in 8.0 mi SSE 16.1 mph - N/A   Clear
5:54 PM 87.1 °F 94.5 °F 73.0 °F 63% 29.88 in 7.0 mi SE 11.5 mph - N/A   Clear
6:54 PM 86.0 °F 93.8 °F 73.9 °F 67% 29.87 in 7.0 mi SE 15.0 mph - N/A   Clear
7:54 PM 84.0 °F 90.2 °F 73.0 °F 69% 29.88 in 6.0 mi SE 12.7 mph - N/A   Haze
8:54 PM 82.9 °F 88.0 °F 72.0 °F 69% 29.88 in 6.0 mi SE 12.7 mph - N/A   Haze
9:54 PM 82.0 °F 85.9 °F 70.0 °F 67% 29.90 in 7.0 mi SE 17.3 mph 23.0 mph N/A   Clear
10:54 PM 80.1 °F 82.7 °F 68.0 °F 67% 29.92 in 8.0 mi SE 13.8 mph - N/A   Clear
11:54 PM 78.1 °F - 66.9 °F 68% 29.94 in 9.0 mi SE 12.7 mph 21.9 mph 0.00 in   Clear